Wind_Speed
93 91 89 87 85 84 83 82 83 84 86 89 93 95 95 95 93 91 89 89 87 85 82 79 76 73 71 70 69 66 63 61 59 57 54 51 47 45 44 42 40 38 37
89 86 84 82 80 78 77 75 75 75 77 79 82 86 90 91 92 93 93 93 92 90 88 84 81 77 75 73 71 69 67 64 61 60 58 55 51 48 46 45 42 41 39
84 82 80 77 74 71 69 67 66 67 68 71 74 78 82 85 88 91 93 95 96 95 93 90 86 82 78 75 73 71 69 67 64 62 61 59 55 52 49 47 45 43 41
81 78 74 70 66 62 59 57 55 56 58 62 67 71 76 80 84 89 93 96 98 99 97 95 91 87 82 79 76 74 71 69 67 65 63 62 60 56 53 50 48 46 44
77 73 68 63 58 54 52 50 49 49 49 53 58 64 70 75 80 86 92 97 100 102 101 99 96 92 87 83 79 77 74 71 68 67 66 64 63 61 58 54 52 49 47
73 68 62 58 54 52 51 51 50 49 48 48 50 54 62 70 77 83 90 97 102 105 104 103 100 96 92 87 83 80 77 73 70 68 67 66 65 64 62 58 56 54 51
69 64 60 57 56 55 55 55 54 52 51 50 48 48 52 62 72 79 86 95 102 106 107 106 104 100 96 91 87 83 79 76 72 68 67 67 66 65 63 62 60 58 56
65 62 60 60 60 60 60 60 60 57 54 53 51 48 48 53 64 74 82 90 98 105 108 109 107 104 100 95 91 87 83 79 75 70 67 66 66 65 64 64 63 61 60
64 63 63 64 65 66 66 66 65 62 58 56 55 51 48 49 55 66 77 85 93 100 106 110 109 107 103 99 95 91 87 83 79 73 69 66 65 65 64 63 63 62 62
65 66 67 69 70 71 71 70 68 66 62 58 56 54 51 48 51 58 69 79 87 93 101 107 109 109 106 102 98 94 91 87 84 80 72 67 67 65 63 62 61 63 64
67 69 71 73 73 72 71 69 67 65 63 59 56 53 52 49 48 53 61 72 81 88 93 101 107 109 108 105 102 97 94 91 87 84 80 71 68 67 65 62 60 58 61
69 72 73 72 68 64 61 60 59 58 58 56 53 51 50 49 49 49 55 64 75 82 87 93 101 106 108 107 104 101 96 93 91 87 84 80 72 67 65 62 57 57 57
73 75 72 67 60 54 47 43 42 45 47 48 48 48 47 47 47 47 51 58 69 77 83 86 91 100 107 108 106 103 99 96 93 90 87 86 80 72 65 62 57 55 56
77 75 69 63 56 48 40 32 27 28 32 37 40 42 43 43 44 45 48 54 63 72 79 82 85 92 102 107 106 103 101 97 94 91 88 88 85 79 70 65 60 56 53
78 72 65 58 50 45 37 28 18 13 18 26 32 35 37 39 40 42 44 49 58 67 75 79 81 85 94 103 105 103 101 99 96 93 89 86 85 82 77 70 67 60 51
77 69 61 54 47 42 36 28 18 6 7 16 23 28 32 34 35 37 40 45 53 63 70 76 77 79 86 97 103 103 101 99 97 94 89 85 83 82 80 77 70 65 57
75 67 59 51 44 39 34 29 21 10 1 8 16 22 26 28 30 33 36 41 48 58 65 72 75 76 80 89 99 102 100 97 96 93 89 85 81 79 79 79 74 68 62
75 67 57 49 41 35 31 26 20 13 4 3 10 16 20 23 25 28 32 37 44 53 61 67 72 73 75 82 92 100 101 97 95 92 88 84 81 78 78 78 75 71 66
74 68 57 48 40 34 29 24 19 12 6 2 7 12 16 19 21 24 28 33 40 49 57 63 68 70 71 76 86 96 101 98 95 91 88 85 81 78 76 75 74 73 69
73 70 60 49 40 34 29 24 19 12 6 3 6 10 14 16 18 21 24 30 37 45 53 60 65 67 68 70 79 90 99 101 96 89 86 84 81 78 76 74 73 72 70
72 71 65 54 43 35 30 24 19 13 7 5 7 9 12 14 16 18 22 27 34 41 49 57 62 64 64 66 72 84 94 99 97 90 85 83 79 76 74 72 71 71 70
70 71 68 60 49 38 31 26 20 15 9 6 7 9 11 12 14 17 20 25 32 39 46 54 59 61 61 62 65 74 87 96 95 91 86 81 77 75 73 70 69 69 70
68 69 69 65 56 45 35 28 21 16 11 6 5 7 10 12 15 17 21 25 30 36 43 50 56 58 57 57 59 66 77 89 94 90 86 79 76 73 73 70 68 67 67
66 67 68 67 62 53 41 31 25 19 13 7 3 5 9 12 15 18 21 25 29 34 40 46 52 54 54 53 55 60 69 79 88 90 88 81 73 70 70 70 69 67 66
64 65 66 66 64 59 49 37 29 23 16 9 4 3 8 12 16 19 22 25 28 32 38 44 48 51 51 50 51 55 62 71 79 84 85 81 74 69 69 69 69 68 66
62 63 64 65 65 63 56 45 34 27 20 13 6 1 7 12 16 20 22 25 28 32 36 41 46 49 49 48 48 50 57 64 70 76 80 79 76 72 71 70 69 68 67
Wind_Direction
301 299 296 293 290 287 283 279 274 270 266 263 260 256 252 248 244 239 235 233 231 230 229 229 229 229 229 229 229 228 226 226 225 225 226 225 225 224 224 223 223 222 222
304 302 299 297 294 291 287 282 277 271 265 260 256 253 250 246 242 239 234 231 229 228 227 226 226 226 226 227 228 227 226 225 224 224 224 225 225 224 224 224 224 224 224
307 305 303 300 297 293 289 285 280 274 267 260 254 250 247 242 238 235 232 229 227 226 226 225 224 224 223 224 226 226 226 225 224 223 223 224 225 225 225 225 225 225 225
309 307 305 302 298 294 291 287 283 278 270 262 255 248 244 240 235 231 228 226 225 224 224 223 222 222 221 221 223 225 225 224 223 223 223 223 223 224 225 225 225 226 226
311 309 305 302 298 294 291 288 286 282 276 268 258 249 243 238 234 229 225 222 222 222 222 222 221 220 219 219 220 222 223 223 223 223 223 223 222 223 224 225 225 225 226
312 309 305 301 296 293 290 288 286 285 282 275 265 254 245 238 233 229 225 221 219 219 219 220 220 219 218 217 218 219 221 222 222 222 223 223 224 223 223 224 225 225 226
313 309 305 300 295 292 289 287 284 282 281 279 273 261 250 241 234 229 225 222 219 217 217 218 218 218 217 216 216 217 219 220 220 221 222 223 224 224 224 224 225 226 226
314 309 305 300 295 291 288 285 282 280 277 276 274 267 255 245 237 230 226 223 220 217 215 216 216 216 216 215 214 214 216 218 218 219 221 223 223 224 224 225 226 227 226
315 311 306 302 297 292 287 283 279 276 273 271 271 268 260 247 239 233 227 224 221 218 216 214 214 215 215 214 213 213 214 215 217 216 218 220 222 223 225 226 226 227 227
318 314 310 305 299 294 288 282 277 273 269 266 264 264 260 252 240 232 229 225 222 220 217 215 213 213 213 213 213 212 212 214 215 215 215 217 219 221 224 225 227 229 228
322 318 314 309 303 296 290 282 276 270 265 261 258 257 256 253 245 233 227 226 222 220 219 216 213 212 212 212 212 211 211 212 214 215 215 215 216 219 220 222 225 227 228
328 325 321 316 311 304 295 285 275 267 261 255 252 250 249 249 246 236 226 224 222 220 219 217 214 212 211 211 211 210 210 212 213 214 215 215 215 216 218 220 224 226 226
334 332 330 328 325 320 311 296 280 265 256 249 245 243 243 243 242 237 226 221 221 219 218 217 215 212 210 209 209 210 210 211 213 214 215 216 217 217 216 217 221 225 226
342 340 340 339 338 336 331 318 295 267 250 240 237 237 238 239 238 235 227 220 218 218 216 216 215 213 210 208 208 208 209 210 212 214 215 216 218 220 220 220 222 224 224
347 347 346 347 349 351 351 345 328 280 241 230 230 231 233 234 234 233 227 220 216 215 215 214 214 213 210 208 207 207 208 210 211 214 215 216 218 220 222 222 223 223 221
352 351 350 352 356 1 6 8 9 359 226 221 223 226 229 231 232 230 226 219 214 212 213 213 213 213 210 208 206 205 206 208 211 213 215 216 217 219 220 223 225 225 223
356 354 354 356 1 8 15 20 25 34 103 211 219 224 227 229 230 228 224 218 212 210 210 212 211 212 210 208 206 204 205 207 210 212 214 215 216 217 219 222 223 224 223
359 358 356 358 2 7 14 18 24 30 32 222 222 224 226 227 228 226 222 216 210 207 207 209 210 210 209 208 206 204 203 204 208 211 213 214 214 216 218 220 222 222 222
2 1 359 358 359 2 8 12 14 17 12 284 230 224 224 224 224 222 219 213 208 205 205 207 209 208 208 208 206 204 202 203 205 208 211 212 213 215 216 218 220 221 222
4 5 3 1 357 357 360 3 4 1 350 290 233 224 221 221 220 219 214 209 205 203 202 204 207 207 207 207 206 205 203 203 204 205 209 211 213 214 216 217 219 220 221
6 8 7 5 0 355 354 355 355 351 333 284 242 226 220 217 215 212 208 204 202 200 199 201 204 206 206 206 207 206 205 205 205 204 206 209 211 212 213 215 217 218 219
7 9 10 9 7 1 355 354 352 350 335 292 246 227 220 215 208 203 199 197 197 196 196 198 202 204 205 205 206 207 207 206 205 204 205 207 209 211 213 214 215 217 218
9 10 12 13 12 9 3 359 356 353 346 320 258 227 217 207 200 194 190 190 191 192 194 196 200 203 204 205 206 207 208 208 206 205 206 205 207 210 213 213 214 214 215
10 11 13 14 15 14 10 5 1 360 357 347 294 225 208 199 191 184 183 183 185 188 190 193 198 201 203 204 206 207 208 209 209 209 208 206 206 207 210 212 213 214 214
11 12 13 15 16 16 15 12 7 5 3 359 343 213 193 187 182 177 176 177 181 184 186 190 195 199 202 204 205 206 207 208 210 210 210 208 205 206 208 209 211 212 214
12 13 14 15 16 17 18 16 13 11 9 6 5 158 175 175 173 172 172 173 177 180 183 187 193 198 201 204 205 206 206 207 209 210 210 210 208 208 208 209 210 211 213
Height
5620 5609 5598 5589 5581 5574 5569 5566 5563 5563 5564 5568 5574 5582 5593 5605 5619 5632 5646 5657 5668 5679 5690 5700 5711 5721 5730 5740 5749 5758 5767 5775 5783 5791 5799 5805 5812 5818 5824 5829 5834 5839 5844
5593 5581 5571 5561 5553 5546 5540 5536 5534 5534 5535 5537 5542 5548 5559 5571 5585 5600 5615 5629 5642 5655 5667 5679 5690 5701 5712 5723 5733 5743 5753 5762 5771 5779 5787 5795 5802 5809 5815 5821 5827 5832 5838
5568 5557 5546 5537 5528 5521 5515 5511 5508 5506 5507 5509 5514 5519 5527 5538 5552 5566 5582 5598 5614 5628 5642 5656 5669 5682 5694 5706 5717 5728 5738 5748 5757 5766 5775 5783 5791 5799 5806 5813 5819 5825 5830
5546 5535 5524 5515 5507 5500 5494 5490 5486 5484 5482 5483 5487 5492 5499 5509 5520 5533 5549 5567 5584 5600 5616 5632 5647 5661 5675 5688 5700 5712 5723 5733 5744 5754 5762 5771 5780 5788 5796 5803 5810 5816 5822
5525 5514 5504 5495 5488 5482 5476 5472 5468 5465 5463 5462 5463 5468 5474 5482 5492 5504 5519 5536 5553 5571 5589 5607 5624 5640 5655 5669 5682 5695 5707 5719 5730 5740 5750 5758 5767 5776 5785 5793 5801 5807 5814
5506 5495 5486 5477 5470 5465 5460 5455 5451 5448 5445 5443 5443 5447 5451 5456 5465 5477 5491 5506 5522 5542 5563 5582 5600 5618 5634 5649 5664 5678 5691 5704 5716 5727 5737 5746 5755 5764 5773 5782 5790 5798 5804
5488 5477 5468 5460 5453 5448 5442 5438 5434 5431 5428 5425 5425 5428 5432 5435 5441 5453 5465 5478 5494 5514 5536 5556 5575 5595 5613 5630 5646 5660 5675 5689 5702 5713 5724 5734 5743 5752 5761 5771 5779 5787 5794
5471 5460 5451 5443 5435 5428 5423 5417 5413 5411 5410 5407 5406 5409 5414 5418 5421 5430 5440 5453 5469 5488 5509 5530 5551 5572 5592 5610 5627 5643 5658 5673 5687 5700 5711 5721 5731 5741 5749 5758 5767 5775 5783
5456 5444 5434 5423 5414 5406 5399 5394 5390 5388 5389 5389 5386 5389 5393 5399 5404 5411 5419 5431 5446 5463 5483 5505 5527 5549 5569 5589 5608 5624 5640 5657 5672 5685 5697 5708 5718 5728 5737 5746 5755 5763 5771
5441 5428 5414 5401 5388 5378 5370 5365 5362 5361 5364 5368 5368 5369 5373 5378 5385 5394 5401 5411 5425 5442 5459 5480 5503 5526 5547 5568 5588 5605 5623 5639 5655 5670 5682 5694 5705 5715 5725 5734 5743 5752 5759
5427 5410 5394 5376 5360 5347 5337 5331 5330 5331 5335 5342 5348 5351 5355 5360 5366 5375 5385 5394 5407 5422 5438 5457 5479 5502 5524 5546 5567 5586 5604 5622 5638 5654 5668 5680 5691 5702 5713 5723 5731 5740 5749
5413 5392 5371 5350 5331 5316 5305 5299 5298 5302 5307 5316 5325 5332 5338 5344 5350 5358 5368 5378 5389 5404 5420 5437 5458 5480 5502 5524 5546 5568 5587 5604 5621 5637 5652 5666 5677 5689 5701 5711 5720 5730 5739
5398 5375 5351 5329 5309 5293 5281 5273 5272 5276 5284 5294 5305 5314 5322 5328 5335 5342 5352 5362 5373 5387 5403 5420 5439 5459 5480 5503 5527 5550 5570 5588 5604 5621 5637 5652 5666 5678 5689 5700 5709 5719 5729
5381 5357 5335 5314 5296 5281 5268 5260 5257 5260 5268 5278 5289 5299 5308 5315 5322 5329 5338 5348 5360 5372 5388 5405 5422 5440 5462 5487 5511 5533 5554 5573 5589 5605 5622 5638 5653 5666 5678 5689 5699 5709 5717
5370 5346 5327 5308 5292 5277 5265 5256 5252 5254 5261 5270 5279 5288 5296 5303 5311 5318 5326 5336 5348 5360 5375 5392 5408 5426 5446 5470 5493 5516 5538 5557 5575 5591 5608 5624 5639 5654 5668 5678 5689 5699 5706
5364 5342 5324 5307 5293 5280 5268 5260 5255 5256 5260 5267 5274 5281 5288 5295 5302 5309 5316 5325 5336 5349 5364 5380 5397 5414 5432 5454 5477 5501 5523 5543 5561 5577 5594 5611 5627 5642 5656 5668 5679 5689 5698
5361 5340 5323 5308 5296 5285 5276 5269 5264 5263 5265 5268 5272 5278 5284 5290 5296 5302 5309 5317 5327 5340 5354 5369 5386 5403 5422 5441 5464 5487 5509 5529 5548 5565 5581 5598 5614 5630 5644 5657 5669 5680 5690
5361 5341 5324 5310 5300 5291 5283 5277 5273 5271 5270 5271 5273 5277 5282 5287 5291 5296 5303 5310 5321 5332 5347 5361 5377 5395 5413 5431 5452 5474 5496 5516 5535 5552 5569 5586 5602 5617 5632 5645 5658 5670 5682
5363 5343 5326 5313 5303 5295 5289 5283 5279 5276 5274 5274 5275 5277 5280 5284 5288 5293 5299 5306 5316 5327 5340 5354 5369 5386 5404 5421 5441 5461 5482 5502 5522 5540 5557 5574 5590 5605 5619 5633 5646 5660 5673
5366 5347 5329 5315 5305 5297 5292 5287 5282 5279 5276 5275 5275 5277 5279 5282 5286 5291 5297 5303 5312 5323 5335 5348 5363 5380 5397 5414 5431 5450 5470 5489 5508 5528 5545 5563 5579 5594 5608 5622 5638 5650 5663
5369 5351 5333 5319 5308 5299 5293 5288 5284 5280 5277 5276 5276 5277 5279 5281 5285 5289 5295 5301 5309 5319 5331 5343 5357 5374 5390 5407 5423 5440 5459 5477 5496 5516 5534 5552 5568 5583 5597 5611 5624 5638 5651
5374 5356 5339 5324 5311 5301 5294 5288 5283 5280 5277 5275 5275 5276 5278 5281 5284 5288 5293 5300 5308 5317 5328 5340 5354 5369 5385 5401 5416 5432 5449 5467 5486 5505 5522 5540 5556 5571 5585 5600 5613 5626 5640
5379 5362 5346 5330 5316 5304 5295 5289 5284 5280 5277 5275 5275 5276 5278 5280 5283 5288 5293 5299 5307 5316 5326 5338 5351 5366 5382 5397 5411 5426 5441 5457 5475 5492 5510 5529 5545 5560 5574 5588 5601 5615 5628
5384 5369 5353 5337 5322 5310 5299 5291 5285 5281 5278 5276 5275 5276 5278 5280 5284 5288 5294 5300 5307 5316 5325 5337 5350 5365 5379 5393 5406 5419 5433 5449 5466 5483 5500 5519 5535 5549 5564 5577 5591 5604 5618
5390 5375 5360 5345 5330 5317 5305 5295 5288 5283 5280 5277 5276 5277 5278 5281 5285 5289 5295 5301 5308 5316 5326 5337 5349 5363 5376 5389 5401 5414 5427 5442 5457 5473 5490 5508 5524 5538 5552 5565 5580 5593 5607
5394 5380 5366 5352 5337 5324 5311 5301 5292 5287 5282 5280 5278 5278 5280 5283 5287 5291 5297 5303 5310 5318 5326 5337 5349 5361 5374 5386 5397 5409 5422 5435 5450 5465 5480 5498 5513 5526 5540 5554 5568 5582 5596